{"data":{"norad_id":54002,"epoch":"2026-05-24T21:51:08.904672Z","epoch_age_seconds":85942,"freshness":"FRESH","line1":"1 54002U 22125AQ  26144.91051973 -.00000225  00000+0  39741-5 0  9993","line2":"2 54002  53.2140 221.6896 0001177  83.4750 276.6376 15.08832740201115","mean_motion":15.0883274,"eccentricity":0.0001177,"inclination_deg":53.214,"raan_deg":221.6896,"arg_perigee_deg":83.475,"mean_anomaly_deg":276.6376,"bstar":3.9741e-6,"rev_number":20111,"period_min":95.438013891454,"perigee_km":538.95134283501,"apogee_km":540.57981710234,"semimajor_km":6917.9025799687,"source":"CELESTRAK","updated_at":"2026-05-25T13:38:17.624252Z"}}